Peoria, IL

8:11 AM CDT on August 18, 2017 (GMT -0500)
Greater Peoria Regional

Weather History for KPIA - March, 2014

Change the Weather History Date:

Friday, March 28, 2014

  Actual Average Record
Temperature  
Mean Temperature 43 °F 45 °F  
Max Temperature 46 °F 56 °F 83 °F (1985)
Min Temperature 40 °F 35 °F 12 °F (1887)
Degree Days  
Heating Degree Days 22 20  
Month to date heating degree days 881 700  
Since 1 July heating degree days 6060 5216  
Cooling Degree Days 0 0  
Month to date cooling degree days 0 0  
Year to date cooling degree days 0 0  
Moisture  
Dew Point 34 °F    
Average Humidity 75    
Maximum Humidity 85    
Minimum Humidity 65    
Precipitation  
Precipitation 0.00 in 0.10 in 1.21 in (1985)
Month to date precipitation 1.94 2.48  
Year to date precipitation 6.81 6.05  
Snow  
Snow 0.00 in 0.10 in 3.00 in (1894)
Month to date snowfall 7.1 2.6  
Since 1 July snowfall 57.3 23.9  
Snow Depth 0.00 in    
Sea Level Pressure  
Sea Level Pressure 29.94 in    
Wind  
Wind Speed 9 mph (NW)    
Max Wind Speed 28 mph    
Max Gust Speed 37 mph    
Visibility 10 miles    
Events      
T = Trace of Precipitation, MM = Missing Value Source: NWS Daily Summary

Daily Weather History Graph

Daily Weather History Graph

Search for Another Location

Airport or City:

Trip Planner

Search our weather history database for the weather conditions in past years. The results will help you decide how hot, cold, wet, or windy it might be!

Date:

Astronomy

Mar. 28, 2014 Rise Set
Actual Time 6:48 AM CDT 7:19 PM CDT
Civil Twilight 6:21 AM CDT 7:46 PM CDT
Nautical Twilight 5:49 AM CDT 8:19 PM CDT
Astronomical Twilight 5:15 AM CDT 8:52 PM CDT
Moon 5:20 AM CDT (3/28) 5:15 PM CDT (3/28)
Length of Visible Light 13h 25m
Length of Day
12h 30m
Waning Crescent, 6% of the Moon is Illuminated
Mar 28
Waning Crescent
Mar 30
New
Apr 7
First Quarter
Apr 15
Full
Apr 22
Last Quarter

Hourly Weather History & Observations

Time (CDT) Temp. Windchill Dew Point Humidity Pressure Visibility Wind Dir Wind Speed Gust Speed Precip Events Conditions
12:13 AM 48.0 °F - 39.9 °F 74% 29.56 in 10.0 mi West 17.3 mph 27.6 mph N/A   Mostly Cloudy
12:54 AM 46.0 °F 38.8 °F 37.9 °F 73% 29.59 in 10.0 mi WSW 18.4 mph 29.9 mph N/A   Overcast
1:45 AM 44.1 °F 35.9 °F 37.9 °F 79% 29.61 in 10.0 mi West 19.6 mph 35.7 mph N/A   Overcast
1:54 AM 44.1 °F 35.2 °F 37.9 °F 79% 29.62 in 10.0 mi WSW 23.0 mph 31.1 mph N/A   Overcast
2:54 AM 42.1 °F 32.8 °F 37.0 °F 82% 29.68 in 9.0 mi West 21.9 mph 31.1 mph N/A   Overcast
3:54 AM 41.0 °F 31.4 °F 35.1 °F 79% 29.72 in 10.0 mi West 21.9 mph 35.7 mph N/A   Overcast
4:54 AM 39.9 °F 32.5 °F 35.1 °F 83% 29.76 in 10.0 mi WNW 12.7 mph 25.3 mph N/A   Overcast
5:19 AM 39.9 °F 30.8 °F 35.1 °F 83% 29.78 in 10.0 mi WNW 18.4 mph 25.3 mph N/A   Overcast
5:29 AM 39.9 °F 30.5 °F 35.1 °F 83% 29.79 in 10.0 mi WNW 19.6 mph 29.9 mph N/A   Overcast
5:54 AM 39.9 °F 32.9 °F 34.0 °F 79% 29.82 in 10.0 mi WNW 11.5 mph 26.5 mph N/A   Overcast
6:54 AM 39.9 °F 33.4 °F 34.0 °F 79% 29.87 in 10.0 mi NW 10.4 mph 19.6 mph N/A   Overcast
7:36 AM 39.9 °F 32.9 °F 33.1 °F 77% 29.90 in 10.0 mi NW 11.5 mph 20.7 mph N/A   Overcast
7:54 AM 39.9 °F 32.5 °F 33.1 °F 77% 29.92 in 10.0 mi NNW 12.7 mph 21.9 mph N/A   Overcast
8:54 AM 39.9 °F 33.9 °F 33.1 °F 77% 29.96 in 10.0 mi NW 9.2 mph - N/A   Overcast
9:54 AM 41.0 °F 35.8 °F 33.1 °F 73% 29.99 in 10.0 mi NNW 8.1 mph - N/A   Overcast
10:54 AM 41.0 °F 38.0 °F 33.1 °F 73% 30.03 in 10.0 mi NNW 4.6 mph - N/A   Overcast
11:54 AM 42.1 °F - 33.1 °F 70% 30.08 in 10.0 mi Calm Calm - N/A   Overcast
12:54 PM 43.0 °F 39.5 °F 33.1 °F 68% 30.09 in 10.0 mi West 5.8 mph - N/A   Overcast
1:54 PM 44.1 °F 40.1 °F 34.0 °F 68% 30.09 in 10.0 mi WNW 6.9 mph - N/A   Overcast
2:54 PM 44.1 °F 41.5 °F 33.1 °F 65% 30.11 in 10.0 mi West 4.6 mph - N/A   Overcast
3:54 PM 44.1 °F 42.5 °F 34.0 °F 68% 30.10 in 10.0 mi West 3.5 mph - N/A   Overcast
4:54 PM 44.1 °F 42.5 °F 33.1 °F 65% 30.12 in 10.0 mi North 3.5 mph - N/A   Overcast
5:54 PM 43.0 °F 39.5 °F 34.0 °F 71% 30.12 in 10.0 mi NW 5.8 mph - N/A   Overcast
6:54 PM 42.1 °F 37.7 °F 34.0 °F 73% 30.12 in 10.0 mi NNE 6.9 mph - N/A   Overcast
7:54 PM 41.0 °F 37.1 °F 34.0 °F 76% 30.12 in 10.0 mi North 5.8 mph - N/A   Overcast
8:54 PM 41.0 °F 37.1 °F 34.0 °F 76% 30.14 in 10.0 mi North 5.8 mph - N/A   Overcast
9:54 PM 39.9 °F 35.8 °F 33.1 °F 77% 30.17 in 10.0 mi NE 5.8 mph - N/A   Overcast
10:54 PM 39.9 °F 37.8 °F 33.1 °F 77% 30.18 in 10.0 mi ENE 3.5 mph - N/A   Overcast
11:54 PM 39.9 °F 36.7 °F 33.1 °F 77% 30.19 in 10.0 mi NNE 4.6 mph - N/A   Overcast